Presure
223 211 156 205 201 203 204 203 205 209 220 219 230 221 215 222 221 227 221 224 235 233 224 225 233 235 238 230 216 152 199 162 181 143 86 142 93 95 110 132 152 146 130 136 136
197 200 202 194 199 206 209 205 232 235 227 192 222 231 216 223 227 210 213 210 214 211 222 226 232 224 229 232 234 238 238 224 148 176 181 118 138 116 159 107 164 110 130 141 133
195 199 206 206 227 219 215 204 210 222 232 240 234 237 245 256 277 254 182 191 229 235 240 244 203 203 218 210 215 231 238 199 225 108 187 185 192 103 101 172 176 176 95 160 174
205 202 209 132 215 229 234 254 252 245 238 251 172 265 219 208 198 199 206 212 214 214 216 220 221 222 221 219 228 221 213 226 221 219 92 76 84 179 100 96 185 185 129 167 156
230 227 200 240 222 218 227 218 279 282 215 255 206 207 206 205 207 229 228 343 374 365 365 341 415 414 231 235 234 232 230 65 218 223 229 232 225 140 108 146 147 187 181 151 146
205 200 175 197 205 208 206 260 198 194 172 195 205 207 215 226 215 237 378 361 317 348 355 406 383 376 378 388 428 240 240 234 233 216 222 231 229 176 151 129 179 173 99 112 185
147 195 193 194 195 195 222 260 202 230 203 204 212 225 236 236 268 373 174 328 348 435 394 378 358 352 363 379 390 425 428 226 233 224 190 219 218 229 82 87 90 109 177 171 173
180 194 185 205 198 190 234 254 228 204 197 194 208 232 231 267 369 353 326 357 397 377 362 356 346 316 338 344 388 400 409 382 240 205 189 217 211 76 83 145 73 84 101 80 82
214 183 175 200 198 181 196 202 203 196 183 208 218 220 256 368 346 351 457 385 363 333 333 335 328 327 317 260 327 262 398 402 294 253 198 195 209 209 168 179 112 86 87 87 82
187 192 165 183 178 196 193 167 207 176 205 205 229 190 272 349 333 422 383 354 326 336 344 416 378 364 350 347 275 239 371 245 419 270 110 97 189 210 212 144 87 80 135 88 81
192 211 220 183 174 191 214 196 198 189 209 221 240 254 346 342 408 349 344 324 327 342 353 358 367 357 370 372 363 187 185 381 399 398 293 212 195 199 211 216 92 199 220 134 88
201 203 203 184 167 180 182 209 208 179 208 219 241 260 348 333 381 358 339 337 327 313 312 311 307 312 347 323 355 356 361 376 340 353 272 110 180 200 203 211 208 208 181 167 108
178 174 185 168 156 163 179 202 198 211 214 229 241 218 341 329 369 314 328 317 302 305 289 293 295 291 292 300 309 325 338 322 329 332 360 276 221 206 202 203 211 206 204 219 212
215 196 227 178 173 179 179 178 197 201 224 226 245 250 335 329 365 339 298 306 303 296 289 288 288 284 282 286 287 292 296 312 328 323 345 266 260 209 199 204 198 210 202 206 212
194 206 200 227 191 190 180 191 195 211 225 231 247 298 336 331 363 312 316 298 201 287 277 289 289 286 278 281 278 288 291 294 311 338 340 358 275 202 199 200 197 209 200 204 204
194 189 204 205 196 181 204 195 194 205 222 231 239 299 339 344 335 325 322 287 292 285 281 290 281 277 279 277 275 267 280 305 314 353 359 347 271 243 212 198 201 212 199 201 201
194 199 191 206 196 170 200 188 189 202 216 229 241 279 345 327 380 347 310 313 284 277 274 284 270 281 286 275 289 292 305 297 326 348 379 335 257 256 197 205 188 194 206 194 197
150 183 225 203 196 178 196 189 199 202 202 226 237 265 348 320 386 296 292 318 296 282 271 275 279 280 270 274 267 289 297 298 311 355 358 371 247 251 201 208 207 205 204 195 190
185 193 226 204 194 173 190 186 200 198 213 224 210 253 356 315 303 322 304 288 309 279 286 271 274 271 283 154 267 173 302 282 342 351 337 383 252 251 208 197 202 208 209 197 199
180 198 192 214 201 166 197 184 194 199 213 220 226 231 285 340 305 295 306 302 288 281 278 277 278 274 280 281 315 265 290 220 319 318 339 374 260 244 217 201 197 198 210 202 195
189 197 149 213 176 163 195 179 187 199 199 214 220 177 267 323 334 308 288 297 308 298 300 299 274 267 272 283 257 281 284 325 301 307 306 332 263 245 203 198 191 189 198 209 195
191 186 206 214 162 175 186 193 189 189 200 208 216 230 149 281 336 335 330 295 291 302 306 307 297 265 276 279 292 171 164 320 307 312 311 286 258 236 214 198 198 189 193 201 204
203 204 184 210 160 160 195 186 190 190 200 206 210 163 243 271 302 325 349 329 304 293 306 306 327 270 279 276 287 152 258 325 259 304 296 278 257 238 204 198 198 194 182 203 195
206 171 200 166 202 183 190 187 186 195 192 195 209 211 204 259 283 331 317 331 319 306 301 306 308 318 304 289 290 150 128 300 164 228 257 277 252 241 214 199 199 196 194 190 188
200 175 187 167 200 180 199 174 181 190 189 196 203 210 220 241 274 300 339 334 335 328 314 305 311 310 309 315 302 166 160 299 216 281 322 172 225 133 181 208 202 194 199 187 193
207 181 209 216 200 175 172 190 187 189 191 192 187 203 211 216 253 286 321 335 327 346 344 324 315 318 328 313 310 303 291 150 164 305 336 316 255 232 210 209 204 202 194 195 188
200 186 160 206 200 180 173 169 188 186 182 182 201 195 206 215 235 273 145 321 327 338 342 362 339 339 329 287 310 306 171 216 177 136 142 293 256 232 217 165 177 203 204 192 171
Wind_Speed
53 60 43 60 63 67 69 71 74 77 79 79 80 74 73 78 81 83 85 86 90 90 88 91 92 95 98 101 103 74 95 69 84 60 25 58 31 29 39 51 60 59 49 52 44
54 57 59 59 62 66 67 66 74 75 75 65 78 81 72 76 76 75 80 83 85 88 91 93 96 96 95 97 100 103 96 89 70 89 89 46 63 50 77 43 68 40 53 56 48
54 58 64 67 66 69 73 62 66 74 81 79 77 75 78 81 81 79 79 82 89 91 95 96 94 94 96 97 98 100 93 83 94 39 96 86 89 40 38 77 77 80 27 66 62
56 58 60 35 60 64 67 66 68 70 72 76 64 77 65 73 78 83 87 91 93 96 98 101 103 103 101 100 104 103 93 94 98 98 37 22 29 87 40 42 85 83 56 70 61
51 53 44 41 43 45 49 54 63 64 62 62 63 67 71 77 80 85 88 81 68 72 72 77 52 47 106 107 109 106 100 13 96 100 99 93 90 64 42 65 69 84 83 65 59
36 35 39 42 43 45 47 54 55 57 56 63 66 71 75 76 81 85 64 67 75 71 74 45 43 47 48 48 48 97 108 101 97 101 98 94 90 65 67 57 86 79 37 48 75
42 40 41 41 42 44 51 49 53 49 59 63 67 71 77 80 87 60 56 68 70 41 38 36 40 45 44 48 49 47 65 102 98 104 80 96 85 77 35 39 36 43 82 74 72
45 42 43 42 42 43 50 47 47 55 60 66 69 73 77 88 62 62 65 66 31 30 29 36 38 43 50 53 45 50 60 81 104 96 86 97 87 24 42 64 14 32 45 23 21
40 44 46 42 43 44 46 49 53 57 61 66 71 74 84 62 63 62 27 21 24 31 35 40 47 49 53 51 47 55 55 64 107 108 95 83 91 91 75 76 52 39 41 43 28
44 44 48 42 44 44 46 49 54 55 62 67 75 58 87 64 64 26 16 14 25 32 37 19 21 29 40 43 47 57 53 39 57 110 34 27 91 100 92 65 49 33 64 42 28
44 42 41 43 44 44 47 52 54 62 65 71 74 81 66 62 27 33 15 18 22 23 26 16 12 22 34 39 40 54 51 46 38 41 112 95 102 94 97 95 21 85 83 60 45
43 41 40 43 45 45 47 50 54 55 62 69 75 84 59 60 19 18 10 8 11 16 26 26 24 24 6 17 11 30 34 41 53 48 109 56 89 99 98 93 91 86 64 63 43
46 46 45 43 46 47 48 50 54 58 63 68 75 68 58 57 18 26 6 14 8 17 9 17 22 22 19 15 12 19 28 51 58 71 60 109 107 106 100 93 91 88 84 76 77
46 44 43 47 46 46 48 48 54 57 63 66 77 74 55 55 9 10 15 6 16 15 15 18 19 21 22 19 20 21 29 30 49 66 72 107 113 103 95 93 86 84 80 73 66
44 44 36 38 42 43 48 50 53 57 61 64 76 84 53 51 12 18 10 12 10 17 6 18 23 29 23 26 29 27 35 42 42 39 65 74 108 96 98 90 83 82 78 73 67
43 41 37 39 39 43 43 47 51 54 60 64 70 82 46 45 24 15 3 9 14 13 11 18 19 19 21 26 32 31 40 30 33 33 50 74 101 105 100 84 83 81 80 75 67
47 43 37 38 37 40 41 46 49 52 56 62 71 79 42 44 13 5 8 10 13 7 7 14 9 10 17 20 22 24 18 17 22 28 40 74 99 102 90 93 79 79 77 75 69
37 33 39 39 35 40 39 43 46 49 51 59 68 75 40 43 11 21 19 2 20 13 5 12 15 16 14 17 13 19 18 24 28 24 38 56 98 100 92 94 90 85 80 76 74
43 46 36 35 33 41 38 42 42 45 51 55 55 72 43 40 39 22 15 17 9 13 15 8 9 6 15 12 12 14 9 18 16 22 41 40 97 96 90 81 78 78 74 72 70
42 42 37 32 30 41 34 40 40 42 47 52 59 60 69 32 35 36 25 15 12 5 9 5 4 8 14 13 15 15 11 19 24 25 29 41 98 90 81 79 72 69 75 74 70
47 43 31 31 34 38 32 39 38 38 41 48 55 38 67 53 28 23 30 23 12 11 12 25 7 6 9 0 7 15 17 20 35 48 50 66 95 88 82 77 72 67 68 70 68
47 34 33 29 36 34 32 30 34 36 38 44 50 58 16 65 40 28 18 20 19 14 11 16 13 14 13 5 5 18 23 22 37 36 49 97 92 85 83 77 76 67 66 67 65
49 45 36 29 35 33 27 29 29 31 34 39 45 26 59 61 57 36 26 20 15 16 11 11 17 12 14 11 9 32 21 27 31 47 67 97 91 88 79 75 73 69 61 64 62
50 38 33 30 26 27 26 25 28 26 31 32 41 45 40 58 58 41 35 23 18 14 12 11 10 13 18 17 16 34 22 25 24 35 48 96 89 86 83 72 74 69 67 64 61
51 39 37 35 28 28 22 29 28 23 27 28 35 43 49 55 56 53 34 30 20 15 12 10 9 12 15 18 20 31 20 26 27 28 49 39 74 36 44 78 75 66 67 59 62
51 42 36 31 29 31 30 19 21 21 22 24 26 36 43 44 55 53 44 32 29 19 11 11 11 10 11 17 20 21 27 20 25 31 39 65 89 83 78 77 73 71 62 63 59
53 43 36 33 30 30 31 29 19 23 25 24 26 28 37 43 50 53 8 41 34 26 19 6 8 6 4 17 19 19 30 26 23 20 18 57 89 82 77 49 53 71 69 61 49
Wind_Direction
257 260 272 265 267 269 269 271 272 273 274 274 275 273 271 271 269 268 265 264 265 262 259 257 255 251 249 247 247 248 246 242 240 241 206 235 206 223 233 236 238 236 239 233 233
263 265 267 269 272 272 273 277 277 276 275 276 277 277 273 272 273 269 267 264 262 259 259 256 255 251 248 246 245 244 240 240 242 236 236 224 231 247 236 239 241 232 235 237 233
266 268 270 272 275 272 275 276 278 278 277 278 278 278 280 280 280 277 272 271 265 263 261 260 258 256 250 249 246 242 237 235 236 226 234 236 234 216 211 240 242 242 233 242 244
268 270 273 276 278 280 280 283 281 279 279 281 280 284 277 272 270 270 270 270 269 267 265 262 259 256 253 251 246 244 239 231 231 235 228 243 243 235 223 229 240 242 240 244 237
269 271 277 277 280 285 291 287 288 287 281 285 280 279 277 275 275 277 275 290 287 285 285 276 276 265 254 251 248 245 240 248 230 230 232 231 230 232 224 230 235 239 240 238 237
274 272 277 278 283 287 289 299 284 285 285 284 284 283 284 290 282 290 295 292 286 289 286 268 262 261 257 254 249 245 241 236 230 233 229 229 226 224 231 236 235 237 224 235 241
275 277 278 282 287 290 301 303 290 295 288 289 291 295 297 296 303 300 278 298 294 280 268 255 256 260 258 256 247 231 226 238 231 227 234 227 224 222 234 236 232 232 238 240 242
269 277 276 290 291 294 305 304 299 291 291 292 295 303 303 310 308 303 304 298 282 270 265 257 257 253 253 252 243 224 221 221 231 228 233 227 224 235 238 227 236 241 234 245 240
285 270 272 290 291 287 297 297 295 292 295 299 304 305 315 316 315 312 301 285 284 282 279 269 256 251 249 250 242 234 218 219 223 225 226 229 225 222 220 224 232 234 241 249 253
269 281 273 279 283 296 296 295 300 298 304 304 312 310 323 322 321 310 301 293 298 305 298 278 251 243 246 245 245 234 218 226 213 221 234 234 228 224 219 225 239 240 234 243 254
274 290 299 279 282 296 304 300 302 303 311 315 322 324 327 327 321 319 320 317 324 323 326 324 281 253 250 243 225 233 231 211 194 209 215 213 223 226 222 219 224 224 226 238 256
282 286 291 280 283 292 296 308 309 306 312 318 326 332 330 332 317 307 304 358 103 93 87 89 96 85 100 92 219 210 206 180 195 205 211 213 216 222 224 221 220 220 226 226 244
268 275 278 278 284 290 296 308 308 317 321 326 331 327 334 337 318 334 132 128 146 108 126 112 112 126 135 127 148 170 176 191 200 209 214 206 210 217 220 221 219 219 221 221 226
285 283 297 281 283 294 296 302 310 315 327 331 337 336 337 342 304 316 319 170 150 138 134 141 144 152 151 159 173 180 181 200 209 213 212 206 209 212 220 220 220 216 219 220 223
281 286 295 302 289 297 298 308 312 323 329 339 341 345 342 347 328 345 201 202 263 173 258 162 165 161 171 173 189 197 196 208 213 217 213 201 206 210 219 219 219 217 218 218 220
277 280 293 295 291 293 311 310 314 324 333 344 344 349 346 352 352 357 218 254 199 200 207 183 182 185 193 197 207 212 212 230 227 226 212 197 201 206 211 217 218 216 217 217 218
277 283 282 293 293 294 309 309 315 326 335 348 349 352 351 359 7 75 50 210 229 234 236 205 215 202 208 223 237 243 250 236 235 229 209 195 199 202 212 213 215 216 215 218 219
262 271 289 288 290 291 309 310 320 328 331 350 351 355 356 357 30 13 34 293 218 214 295 235 225 232 254 242 254 272 258 227 237 227 200 188 199 199 215 209 210 213 213 216 220
269 273 289 285 285 287 305 308 322 328 339 352 348 358 2 354 3 8 355 25 230 355 227 246 244 291 262 111 250 241 247 221 196 184 194 198 200 199 211 215 214 213 215 218 218
258 270 281 284 288 287 304 306 318 329 343 353 356 357 2 4 355 1 6 339 345 359 247 263 288 273 277 270 265 217 216 208 164 161 208 198 198 198 208 214 217 217 214 216 220
261 267 264 280 272 285 300 303 312 332 334 353 358 346 4 7 6 354 354 357 331 307 285 260 152 177 233 342 188 189 194 190 184 189 196 195 194 195 210 212 215 217 217 216 219
259 261 268 273 270 281 294 306 311 321 337 350 359 2 347 5 10 4 356 347 347 308 297 268 271 189 221 162 198 197 189 184 186 189 194 192 192 195 203 211 213 217 217 218 219
255 259 262 267 269 280 290 298 310 321 339 352 358 341 8 8 7 9 4 351 338 342 318 295 250 255 215 203 208 181 192 178 181 189 198 192 191 194 207 211 213 215 220 218 220
249 243 256 258 263 270 282 294 304 328 330 345 359 2 3 13 8 10 8 358 346 336 333 312 275 250 237 217 211 187 199 192 208 204 198 191 191 195 204 210 212 215 217 219 223
242 239 251 248 256 262 275 287 299 317 324 346 359 4 5 15 13 10 12 10 355 337 324 322 280 246 236 220 213 195 209 199 208 196 199 193 195 224 215 206 213 218 216 225 223
236 241 243 243 247 256 268 277 291 308 323 337 345 4 6 10 19 14 13 12 11 360 329 308 299 263 228 204 201 201 197 205 199 189 189 190 195 194 206 207 212 216 222 222 228
236 233 238 238 241 245 259 273 278 293 304 317 2 1 6 10 21 21 305 16 17 12 15 315 307 270 198 198 191 192 209 205 209 222 210 191 196 198 206 214 215 215 217 228 229